Regional Weather Roundup
Issued by NWS

Home | Current Version | Previous Version | Graphics & Text | Print | Product List | Glossary Off
Versions: 1 2 3 4 5 6 7 8 9 10 11 12 13 14 15 16 17 18 19 20 21 22 23 24 25 26 27

000
ASUS45 KBOU 300307
RWRCO

WEATHER ROUNDUP FOR COLORADO
NATIONAL WEATHER SERVICE DENVER/BOULDER CO
900 PM MDT WED MAR 29 2017

NOTE: "FAIR" INDICATES FEW OR NO CLOUDS BELOW 12000 FEET WITH NO
SIGNIFICANT WEATHER AND/OR OBSTRUCTIONS TO VISIBILITY.

COZ001>005-013-030-031-300400-
...NORTHWEST COLORADO...

CITY           SKY/WX    TMP DP  RH WIND       PRES   REMARKS
CRAIG          FAIR      39  28  64 NW6       30.05S
HAYDEN         FAIR      39  23  52 CALM      30.06S
MEEKER         FAIR      39  29  67 CALM      30.07R
MOUNT WERNER   NOT AVBL
STEAMBOAT SPGS FAIR      39  26  59 CALM      30.07S
WALDEN         NOT AVBL
$$

COZ006>008-011-300400-
...WEST CENTRAL VALLEYS...

CITY           SKY/WX    TMP DP  RH WIND       PRES   REMARKS
GRAND JUNCTION FAIR      50  28  42 NE7       30.01R
MONTROSE       FAIR      48  27  44 S6        30.07R
EAGLE          CLEAR     45  27  49 CALM      30.08R
RIFLE          FAIR      47  26  44 W6        30.04R
DELTA          FAIR      55  23  29 NW3       30.03R
NUCLA          FAIR      46  21  36 NW6       30.10R
$$

COZ017>023-064>068-300400-
...SOUTHWEST COLORADO...

CITY           SKY/WX    TMP DP  RH WIND       PRES   REMARKS
DURANGO        FAIR      47  15  27 N8        30.01R
CORTEZ         FAIR      51  22  31 NW10      30.05R
PAGOSA SPRINGS FAIR      44  15  31 CALM      30.06R
TELLURIDE      FAIR      37  19  47 CALM      30.16R
WOLF CREEK PAS FAIR      25   9  50 CALM      30.23R
$$

COZ009-010-012-014-032>034-037-058>063-300400-
...CENTRAL COLORADO...

CITY           SKY/WX    TMP DP  RH WIND       PRES   REMARKS
ASPEN          FAIR      34  25  69 S5        30.08R WCI  30
BUENA VISTA    FAIR      41  17  37 W8        30.05S
COPPER MTN     FAIR      28  12  50 MISG      30.15F
BERTHOUD PASS  FAIR      16   5  62 NW22      30.12F WCI  -2
COTTONWOOD PAS FAIR      37  19  48 W13G20    30.11R
GUNNISON       FAIR      41  25  53 SW12      30.09R
KREMMLING      FAIR      43  27  52 NW5       30.09R
LEADVILLE      FAIR      28  15  58 N6        30.09F WCI  22
MONARCH PASS   FAIR      27  18  69 W15       30.28S WCI  15
SALIDA         FAIR      46  17  31 W5        30.12R
SUNLIGHT       FAIR      28  21  74 W9        30.21R WCI  20
WILKERSON PASS FAIR      28  12  50 NW12G22   30.15S WCI  18
$$

COZ069>075-300400-
...SAN LUIS VALLEY/SANGRE DE CRISTO MOUNTAINS...

CITY           SKY/WX    TMP DP  RH WIND       PRES   REMARKS
ALAMOSA        FAIR      41  22  46 NW10      30.03R
LA VETA PASS   NOT AVBL
SAGUACHE       FAIR      41  23  48 NW13G21   30.07R
$$

COZ035-036-038>040-300400-
...NORTHERN COLORADO FRONT RANGE...

CITY           SKY/WX    TMP DP  RH WIND       PRES   REMARKS
DENVER INTL AP FAIR      39  32  76 SE10      29.97S
DMNS CITY PARK   N/A     47  32  56 SE6       29.98S
AURORA         PTCLDY    39  35  83 SE9       29.99R
FRONT RANGE AP PTCLDY    41  36  81 SE8       29.99S
ERIE MUNI ARPT FAIR      48  32  53 SE6         N/A
BOULDER MUN AP FAIR      50  32  50 S3        29.97S
CENTENNIAL     MOCLDY    42  34  73 S7        29.99R
BROOMFIELD     PTCLDY    48  32  53 SE3       29.99S
FORT COLLINS   FAIR      48  29  47 E8        29.97R
LONGMONT       FAIR      52  31  44 S3        29.99R
$$

COZ041-046-047-076>085-087-088-300400-
...PIKES PEAK/PALMER DIVIDE AND SOUTHERN FOOTHILLS...

CITY           SKY/WX    TMP DP  RH WIND       PRES   REMARKS
COLO. SPRINGS  FAIR      43  27  53 N7        30.02R
A. F. ACADEMY  NOT AVBL
SCHRIEVER AFB  FAIR      39  32  76 N7        30.01S
ELLICOTT       FAIR     N/A N/A N/A NE13      30.00R
FALCON         FAIR      38  31  76 N7        30.03S
FORT CARSON    FAIR      45  29  53 W9        30.00R
LIMON          FAIR      32  31  96 NW5       29.99R WCI  27
MONUMENT HILL  FAIR      34  30  86 CALM      30.03S
TRINIDAD       FAIR      38  32  79 W8        30.03R
$$

COZ042>045-048>051-090-091-300400-
...NORTHEAST COLORADO...

CITY           SKY/WX    TMP DP  RH WIND       PRES   REMARKS
GREELEY ARPT   FAIR      44  33  65 SE8       29.97R
AKRON          FAIR      36  33  89 E8        29.96S
BURLINGTON     FAIR      40  36  86 N7        29.94F
WRAY           FAIR      41  36  81 NW3       29.95F
STERLING       FAIR      41  36  81 E5        29.95S
HOLYOKE        FAIR      41  37  87 NW3       29.95S
FORT MORGAN    FAIR      38  34  84 E6        29.97S
$$

COZ086-089-092>099-300400-
...SOUTHEAST COLORADO...

CITY           SKY/WX    TMP DP  RH WIND       PRES   REMARKS
PUEBLO         CLOUDY    49  36  61 SE5       30.00R
LA JUNTA       FAIR      47  35  63 CALM      29.98R
LAMAR          FAIR      39  35  86 W6        29.95R
SPRINGFIELD      N/A     36  34  92 NW9       29.95R
$$




USA.gov is the U.S. government's official web portal to all federal, state and local government web resources and services.